This demonstration page uses our WeatherBlox Daily Observations layout. Learn more.

Left ArrowRight Arrow

39.08367, -84.50855

Hourly Observations for April 16, 2017

Temp ( °F °C ) Dew Point ( °F °C ) Humidity (%) Winds ( mph kmh ) Pressure ( in mb ) Visibility ( mi km ) Precip ( " mm )
12:53 am 00:53 Clear 62 16.7 56 13.3 80 80 SSW 7 11 30.03 1017 10 16.0934 0 0
1:53 am 01:53 Clear 62 16.7 56 13.3 80 80 SSW 10 17 30.03 1017 10 16.0934 0 0
2:53 am 02:53 Mostly Cloudy 66 18.9 57 13.9 73 73 SSW 9 15 30.03 1017 10 16.0934 0 0
3:53 am 03:53 Cloudy 65 18.3 56 13.3 73 73 SSW 6 9 30.03 1017 10 16.0934 0 0
4:53 am 04:53 Cloudy with Light Rain 65 18.3 56 13.3 73 73 SSW 8 13 30.03 1017 10 16.0934 0 0.0254
5:28 am 05:28 Cloudy with Heavy Thunderstorms 65 18.3 59 15 81 81 SSW 15 24 30 1016 3 4.82802 0.07 1.778
5:46 am 05:46 Mostly Cloudy 62 16.7 59 15 90 90 W 7 11 30 1016 10 16.0934 0.07 1.778
5:53 am 05:53 Mostly Cloudy 61 16.1 59 15 93 93 Calm 30.03 1017 10 16.0934 0.07 1.778
6:53 am 06:53 Mostly Cloudy 64 17.8 58 14.4 81 81 SSW 18 30 30.03 1017 10 16.0934 0.01 0.254
7:53 am 07:53 Mostly Cloudy 65 18.3 60 15.6 84 84 SSW 20 31 30.05 1018 10 16.0934 0 0
8:53 am 08:53 Sunny 67 19.4 60 15.6 79 79 SSW 20 31 30.04 1017 10 16.0934 0 0
9:53 am 09:53 Partly Cloudy 67 19.4 61 16.1 81 81 SSW 15 24 30.04 1017 10 16.0934 0 0.0254
10:53 am 10:53 Mostly Cloudy 70 21.1 62 16.7 76 76 SSW 18 30 30.05 1018 10 16.0934 0 0
11:53 am 11:53 Cloudy 73 22.8 63 17.2 71 71 SW 14 22 30.05 1018 10 16.0934 0 0
12:13 pm 12:13 Cloudy with Nearby Thunderstorms 73 22.8 64 17.8 74 74 WSW 14 22 30.03 1017 10 16.0934 0 0
12:28 pm 12:28 Cloudy with Light Rain 72 22 63 17 73 73 SW 17 28 30.03 1017 8 12.87472 0 0
12:53 pm 12:53 Mostly Cloudy 72 22.2 66 18.9 82 82 SW 12 19 30.04 1017 10 16.0934 0 0.0254
1:53 pm 13:53 Sunny 76 24.4 65 18.3 69 69 SW 16 26 30.01 1016 10 16.0934 0 0
2:53 pm 14:53 Mostly Sunny 79 26.1 61 16.1 54 54 WSW 16 26 30 1016 10 16.0934 0 0
3:53 pm 15:53 Partly Cloudy 79 26.1 62 16.7 56 56 WSW 14 22 29.98 1015 10 16.0934 0 0
4:53 pm 16:53 Mostly Cloudy 76 24.4 61 16.1 60 60 SW 18 30 29.98 1015 10 16.0934 0 0
5:18 pm 17:18 Mostly Cloudy with Nearby Thunderstorms 75 24 64 18 69 69 S 14 22 29.94 1014 10 16.0934 0 0
5:31 pm 17:31 Mostly Cloudy with Light Thunderstorms 75 23.9 64 17.8 69 69 SSW 13 20 29.94 1014 10 16.0934 0 0.0254
5:53 pm 17:53 Windy with Storms Likely 68 20 64 17.8 87 87 NW 20 31 29.97 1015 2 3.21868 0.17 4.318
6:13 pm 18:13 Cloudy with Light Thunderstorms 67 19.4 64 17.8 91 91 SE 7 11 29.94 1014 7 11.26538 0.33 8.382
6:53 pm 18:53 Cloudy with Heavy Thunderstorms 65 18.3 63 17.2 93 93 W 16 26 30.01 1016 2.5 4.02335 0.54 13.716
7:07 pm 19:07 Cloudy with Heavy Thunderstorms 62 16.7 62 16.7 100 100 WSW 21 33 30.03 1017 2 3.21868 0.56 14.224
7:28 pm 19:28 Cloudy with Nearby Thunderstorms 63 17.2 62 16.7 97 97 W 10 17 30.03 1017 2 3.21868 0.74 18.796
7:31 pm 19:31 Cloudy with Light Rain 63 17.2 62 16.7 97 97 W 6 9 30.03 1017 4 6.43736 0.75 19.05
7:53 pm 19:53 Cloudy with Rain 63 17.2 62 16.7 97 97 WSW 8 13 30.07 1018 4 6.43736 0.79 20.066
8:53 pm 20:53 Mostly Cloudy 62 16.7 62 16.7 100 100 SSW 3 6 30.06 1018 10 16.0934 0.2 5.08
9:53 pm 21:53 Cloudy 62 16.7 62 16.7 100 100 Calm 30.08 1019 10 16.0934 0 0
10:12 pm 22:12 Cloudy with Heavy Rain 63 17 63 17 100 100 SW 5 7 30.06 1018 1.75 2.816345 0 0
10:34 pm 22:34 Cloudy with Heavy Rain 62 16.7 62 16.7 100 100 W 5 7 30.06 1018 2.5 4.02335 0.32 8.128
10:46 pm 22:46 Cloudy with Heavy Rain 62 16.7 62 16.7 100 100 W 3 6 30.06 1018 1.75 2.816345 0.41 10.414
10:53 pm 22:53 Cloudy with Heavy Rain 62 16.7 62 16.7 100 100 Calm 30.09 1019 1.5 2.41401 0.47 11.938
11:06 pm 23:06 Cloudy with Light Rain 62 16.7 62 16.7 100 100 W 3 6 30.06 1018 3 4.82802 0.06 1.524
11:53 pm 23:53 Partly Cloudy 62 16.7 62 16.7 100 100 Calm 30.05 1018 10 16.0934 0.06 1.524

Powered by AerisWeather